Location: Владивосток
(43.1151°N, 131.8856°E)
Time: 06:01:37
(UTC+10:00)

CUBEBUG 2 - Pass Details

Date: 11 July 2022
Orbit: 584 x 693 km, 97.7° (Epoch: 07 August)

Event Time Altitude Azimuth Distance (km) Brightness Sun altitude
Rises 03:07:48 0° 29° (NNE) 2,883 ? -20.0°
Reaches altitude 10° 03:10:36 10° 49° (NE) 1,993 ? -19.8°
Maximum altitude 03:13:34 18° 93° (E) 1,551 ? -19.5°
Drops below altitude 10° 03:16:35 10° 136° (SE) 2,028 ? -19.2°
Enters shadow 03:17:00 - 140° (SE) 2,147 ? -19.2°
